Caribou, ME

5:55 PM EST on January 19, 2017 (GMT -0500)
Caribou Municipal

Weather History for KCAR - July, 2013

Change the Weather History Date:

Wednesday, July 17, 2013

  Actual Average Record
Temperature  
Mean Temperature 71 °F 66 °F  
Max Temperature 82 °F 76 °F 92 °F (1999)
Min Temperature 59 °F 56 °F 43 °F (1942)
Degree Days  
Heating Degree Days 0 2  
Month to date heating degree days 3 38  
Since 1 June heating degree days 181 203  
Since 1 July heating degree days 3 38  
Cooling Degree Days 6 2  
Month to date cooling degree days 104 39  
Year to date cooling degree days 135 78  
Since 1 June cooling degree days 127 73  
Growing Degree Days 20 (Base 50)    
Moisture  
Dew Point 64 °F    
Average Humidity 81    
Maximum Humidity 93    
Minimum Humidity 68    
Precipitation  
Precipitation 3.81 in 0.13 in 3.81 in (2013)
Month to date precipitation 3.84 2.31  
Year to date precipitation 23.92 19.21  
Snow  
Snow 0.00 in 0.00 in 0.00 in (2002)
Month to date snowfall 0.0 0.0  
Since 1 June snowfall 0.0 0.0  
Since 1 July snowfall 0.0 0.0  
Snow Depth 0.00 in    
Sea Level Pressure  
Sea Level Pressure 29.99 in    
Wind  
Wind Speed 8 mph (South)    
Max Wind Speed 36 mph    
Max Gust Speed 46 mph    
Visibility 6 miles    
Events Fog , Rain , Thunderstorm    
T = Trace of Precipitation, MM = Missing Value Source: NWS Daily Summary

Daily Weather History Graph

Daily Weather History Graph

Search for Another Location

Airport or City:

Trip Planner

Search our weather history database for the weather conditions in past years. The results will help you decide how hot, cold, wet, or windy it might be!

Date:

Astronomy

Jul. 17, 2013 Rise Set
Actual Time 4:54 AM EDT 8:20 PM EDT
Civil Twilight 4:17 AM EDT 8:58 PM EDT
Nautical Twilight 3:27 AM EDT 9:47 PM EDT
Astronomical Twilight 2:22 AM EDT 10:51 PM EDT
Moon 3:00 PM EDT (7/17) 12:07 AM EDT (7/17)
Length of Visible Light 16h 41m
Length of Day
15h 25m
Waxing Gibbous, 67% of the Moon is Illuminated
Jul 17
Waxing Gibbous
Jul 22
Full
Jul 29
Last Quarter
Aug 6
New
Aug 14
First Quarter

Hourly Weather History & Observations

Time (EDT) Temp. Heat Index Dew Point Humidity Pressure Visibility Wind Dir Wind Speed Gust Speed Precip Events Conditions
12:54 AM 64.0 °F - 55.0 °F 73% 30.16 in 10.0 mi Calm Calm - N/A   Clear
1:54 AM 61.0 °F - 55.9 °F 83% 30.16 in 10.0 mi Calm Calm - N/A   Mostly Cloudy
2:54 AM 61.0 °F - 57.0 °F 87% 30.14 in 10.0 mi SSE 3.5 mph - N/A   Clear
3:54 AM 63.0 °F - 59.0 °F 87% 30.13 in 9.0 mi SSE 6.9 mph - N/A   Clear
4:54 AM 63.0 °F - 57.0 °F 81% 30.13 in 7.0 mi South 8.1 mph - N/A   Clear
5:54 AM 64.9 °F - 55.9 °F 73% 30.13 in 8.0 mi South 10.4 mph 17.3 mph N/A   Clear
6:54 AM 66.0 °F - 57.0 °F 73% 30.12 in 8.0 mi South 9.2 mph - N/A   Scattered Clouds
7:54 AM 68.0 °F - 57.9 °F 70% 30.11 in 8.0 mi South 6.9 mph - N/A   Overcast
8:54 AM 70.0 °F - 59.0 °F 68% 30.09 in 8.0 mi South 9.2 mph - N/A   Mostly Cloudy
9:54 AM 70.0 °F - 62.1 °F 76% 30.06 in 8.0 mi South 9.2 mph - 0.00 in Rain Light Rain
10:54 AM 70.0 °F - 64.9 °F 84% 30.07 in 5.0 mi SW 3.5 mph - 0.02 in Rain Light Rain
11:11 AM 69.8 °F - 66.2 °F 88% 30.07 in 2.5 mi SW 6.9 mph - 0.04 in Rain Rain
11:24 AM 69.8 °F - 66.2 °F 88% 30.07 in 1.2 mi SW 3.5 mph - 0.11 in Rain Heavy Rain
11:32 AM 68.0 °F - 66.2 °F 94% 30.05 in 1.5 mi South 10.4 mph - 0.16 in Rain Rain
11:37 AM 68.0 °F - 66.2 °F 94% 30.05 in 3.0 mi South 9.2 mph - 0.17 in Rain Light Rain
11:52 AM 69.8 °F - 66.2 °F 88% 30.04 in 7.0 mi South 9.2 mph - 0.17 in   Overcast
11:54 AM 69.1 °F - 66.9 °F 93% 30.04 in 7.0 mi South 10.4 mph - 0.17 in   Overcast
12:22 PM 69.8 °F - 66.2 °F 88% 30.02 in 8.0 mi South 12.7 mph 18.4 mph N/A   Mostly Cloudy
12:47 PM 71.6 °F - 66.2 °F 83% 30.00 in 10.0 mi SW 13.8 mph - N/A   Mostly Cloudy
12:49 PM 73.4 °F - 66.2 °F 78% 30.00 in 10.0 mi SSW 11.5 mph 19.6 mph N/A   Mostly Cloudy
12:54 PM 73.0 °F - 68.0 °F 84% 30.01 in 10.0 mi SSW 12.7 mph 19.6 mph N/A   Mostly Cloudy
1:16 PM 73.4 °F - 68.0 °F 83% 29.99 in 10.0 mi SSW 12.7 mph 19.6 mph N/A   Mostly Cloudy
1:27 PM 75.2 °F - 68.0 °F 78% 29.98 in 10.0 mi SW 10.4 mph 18.4 mph N/A   Mostly Cloudy
1:54 PM 75.0 °F - 66.9 °F 76% 29.98 in 10.0 mi SW 12.7 mph 20.7 mph N/A   Mostly Cloudy
2:54 PM 79.0 °F - 69.1 °F 72% 29.96 in 10.0 mi SSW 12.7 mph - N/A   Mostly Cloudy
3:07 PM 78.8 °F - 69.8 °F 74% 29.95 in 10.0 mi SW 10.4 mph 16.1 mph N/A   Mostly Cloudy
3:54 PM 81.0 °F 84.9 °F 71.1 °F 72% 29.91 in 10.0 mi South 10.4 mph - N/A   Clear
4:54 PM 81.0 °F 84.9 °F 71.1 °F 72% 29.88 in 10.0 mi South 11.5 mph - N/A Thunderstorm Clear
5:38 PM 69.8 °F - 64.4 °F 83% 29.90 in 2.5 mi North 26.5 mph 46.0 mph 0.00 in Rain , Thunderstorm Thunderstorms and Rain
5:41 PM 68.0 °F - 64.4 °F 88% 29.91 in 1.2 mi NNE 16.1 mph 46.0 mph 0.05 in Rain , Thunderstorm Heavy Thunderstorms and Rain
5:44 PM 68.0 °F - 64.4 °F 88% 29.91 in 0.8 mi North 20.7 mph 46.0 mph 0.16 in Rain , Thunderstorm Heavy Thunderstorms and Rain
5:52 PM 66.2 °F - 64.4 °F 94% 29.97 in 0.5 mi North 17.3 mph 35.7 mph 0.75 in Fog , Rain , Thunderstorm Heavy Thunderstorms and Rain
5:54 PM 66.9 °F - 64.9 °F 93% 29.99 in 0.5 mi North 11.5 mph 35.7 mph 0.92 in Fog , Rain , Thunderstorm Heavy Thunderstorms and Rain
6:12 PM 66.2 °F - 64.4 °F 94% 29.93 in 0.8 mi South 8.1 mph 17.3 mph 1.20 in Rain , Thunderstorm Heavy Thunderstorms and Rain
6:26 PM 68.0 °F - 64.4 °F 88% 29.89 in 0.8 mi SE 12.7 mph - 1.60 in Rain , Thunderstorm Heavy Thunderstorms and Rain
6:29 PM 68.0 °F - 64.4 °F 88% 29.89 in 1.2 mi SSE 11.5 mph - 1.60 in Rain , Thunderstorm Thunderstorms and Rain
6:31 PM 68.0 °F - 64.4 °F 88% 29.89 in 2.5 mi South 11.5 mph - 1.60 in Rain , Thunderstorm Light Thunderstorms and Rain
6:38 PM 68.0 °F - 64.4 °F 88% 29.90 in 6.0 mi South 6.9 mph - 1.60 in Rain , Thunderstorm Light Thunderstorms and Rain
6:44 PM 68.0 °F - 66.2 °F 94% 29.92 in 2.5 mi Variable 3.5 mph - 1.66 in Rain , Thunderstorm Heavy Thunderstorms and Rain
6:50 PM 66.2 °F - 66.2 °F 100% 29.93 in 1.2 mi ENE 15.0 mph 24.2 mph 1.79 in Rain , Thunderstorm Heavy Thunderstorms and Rain
6:54 PM 69.1 °F - 64.9 °F 87% 29.93 in 0.8 mi ESE 8.1 mph 24.2 mph 1.92 in Rain , Thunderstorm Heavy Thunderstorms and Rain
7:04 PM 68.0 °F - 66.2 °F 94% 29.94 in 1.5 mi SSE 8.1 mph - 0.14 in Rain , Thunderstorm Heavy Thunderstorms and Rain
7:12 PM 69.8 °F - 66.2 °F 88% 29.93 in 0.8 mi Variable 4.6 mph - 0.41 in Rain , Thunderstorm Heavy Thunderstorms and Rain
7:24 PM 66.2 °F - 66.2 °F 100% 29.93 in 1.0 mi SSE 10.4 mph - 0.68 in Rain , Thunderstorm Light Thunderstorms and Rain
7:27 PM 68.0 °F - 66.2 °F 94% 29.93 in 3.0 mi South 9.2 mph - 0.69 in Rain , Thunderstorm Light Thunderstorms and Rain
7:36 PM 68.0 °F - 66.2 °F 94% 29.92 in 10.0 mi South 8.1 mph - 0.69 in Rain , Thunderstorm Light Rain
7:54 PM 68.0 °F - 66.0 °F 93% 29.91 in 10.0 mi SSE 6.9 mph - 0.69 in Rain Light Rain
8:54 PM 68.0 °F - 66.9 °F 96% 29.93 in 9.0 mi SSW 10.4 mph - 0.03 in Rain Light Rain
9:54 PM 68.0 °F - 66.9 °F 96% 29.92 in 7.0 mi SW 3.5 mph - 0.03 in Rain Light Rain
10:54 PM 68.0 °F - 66.9 °F 96% 29.90 in 10.0 mi SSW 4.6 mph - 0.02 in   Overcast
11:54 PM 68.0 °F - 66.9 °F 96% 29.91 in 7.0 mi WSW 5.8 mph - 0.01 in   Overcast